Location: Brotuna
(46.2000°N, 22.6000°E)
Time: 22:46:49
(UTC+00:00)

Cosmos 2154 Rocket - Pass Details

Date: 09 April 2020
Orbit: 965 x 997 km, 82.9° (Epoch: 26 May)

Event Time Altitude Azimuth Distance (km) Brightness Sun altitude
Rises 17:37:58 0° 354° (N) 3,729 7.4 -5.6°
Reaches altitude 10° 17:40:36 10° 360° (N) 2,774 6.6 -6.0°
Maximum altitude 17:46:48 52° 76° (ENE) 1,225 4.3 -7.1°
Drops below altitude 10° 17:52:55 10° 152° (SSE) 2,740 5.9 -8.0°
Sets 17:55:30 0° 157° (SSE) 3,680 6.6 -8.5°
